Regional Weather Roundup
Issued by NWS Cleveland, OH

Home | Current Version | Previous Version | Graphics & Text | Print | Product List | Glossary On
Versions: 1 2 3 4 5 6 7 8 9 10 11 12 13 14 15 16 17 18 19 20 21 22 23 24 25 26 27 28 29 30 31 32 33 34 35 36 37 38 39 40 41 42 43 44 45 46 47 48 49 50
000
ASUS41 KCLE 261700
RWRCLE
OHIO REGIONAL WEATHER ROUNDUP
NATIONAL WEATHER SERVICE WILMINGTON, OH
1200 PM EST MON JAN 26 2015

NOTE: "FAIR" INDICATES FEW OR NO CLOUDS BELOW 12,000 FEET WITH NO
SIGNIFICANT WEATHER AND/OR OBSTRUCTIONS TO VISIBILITY.

OHZ001>008-015>018-024>027-034-035-043-044-261800-
   NORTHWEST OHIO

CITY           SKY/WX    TMP DP  RH WIND       PRES   REMARKS
DEFIANCE       MOSUNNY   18   9  68 NE5       29.95F WCI  11
FINDLAY        PTSUNNY   18  11  74 N8        29.90F WCI   8
TOLEDO EXPRESS SUNNY     20  10  65 CALM      29.92F
TOLEDO EXEC    SUNNY     19   9  65 NE8       29.93F WCI   9
LIMA           PTSUNNY   16   9  74 N9        29.89F WCI   4
$$

OHZ009>014-019>023-028>033-038-089-261800-
   NORTHEAST OHIO

CITY           SKY/WX    TMP DP  RH WIND       PRES   REMARKS
CLE-HOPKINS    CLOUDY    21  17  84 N20       29.87F WCI   6
CLE-LAKEFRONT  CLOUDY    23  17  78 N15G23    29.85F WCI  10
CUY CO. ARPT   CLOUDY    23  19  86 NE14      29.83F WCI  11
LORAIN-ELYRIA  CLOUDY    20  16  84 NE16      29.86F FOG     WCI   6
ASHTABULA      CLOUDY    22  15  75 N6        29.82F WCI  14
AKRON-CANTON   LGT SNOW  22  17  81 N10       29.77F VSB 1   WCI  11
WOOSTER        CLOUDY    22  17  81 N14       29.80F WCI   9
MANSFIELD      CLOUDY    20  15  81 NW16      29.82S WCI   6
YOUNGSTOWN     LGT SNOW  22  16  78 N9        29.77F FOG     WCI  12
$$

OHZ042-051>053-060>062-070>072-077>081-261800-
  SOUTHWEST OHIO

CITY           SKY/WX    TMP DP  RH WIND       PRES   REMARKS
CINC-COVINGTON PTSUNNY   25  17  72 NW10      29.91F WCI  15
CINC-LUNKEN    CLOUDY    23  16  74 NW9       29.95F WCI  13
HAMILTON       MOSUNNY   23  15  71 W8        29.95F WCI  14
DAYTON         NOT AVBL
WRIGHT-PAT AFB NOT AVBL
DAYTON GENERAL MOSUNNY   19  12  74 NW9       29.89F WCI   8
WILMINGTON     CLOUDY    19  13  77 NW13      29.87F WCI   6
$$

OHZ036-037-039>041-045>050-054>059-063>069-073>076-082>088-261800-
  CENTRAL AND SOUTHEAST OHIO

CITY           SKY/WX    TMP DP  RH WIND       PRES   REMARKS
COLUMBUS       CLOUDY    21  16  81 NW17      29.85R WCI   7
OSU AIRPORT    CLOUDY    19  14  81 NW13G22   29.85S WCI   6
BOLTON FIELD   NOT AVBL
RICKENBACK AFB NOT AVBL
NEWARK         PTSUNNY   25  18  74 N7        29.82R WCI  17
MARION         CLOUDY    18  12  77 N17       29.87S WCI   3
LANCASTER      CLOUDY    24  19  81 NW10      29.84R WCI  14
ZANESVILLE     LGT SNOW  23  19  85 NW8       29.79S FOG     WCI  14
NEW PHILLY     CLOUDY    25  18  74 N8        29.79F WCI  16
$$


USA.gov is the U.S. government's official web portal to all federal, state and local government web resources and services.